Content
SEND FEEDBACK

Daily
Averages
Monthly
Summary
United States of America

PETALUMA, CALIFORNIA


Home > North America > United States > California
Elevation: 1 foot     Latitude: 38 14N     Longitude: 122 38W

WEATHER
 
SELECT A DAY
Number of Records: 70,777;   Date Range: 4/19/11 - 7/27/14
 
SHARE

PRINT THIS DATA

[ ← Previous Day ]
WEATHER ALMANAC - MAY 9, 2013
[ Next Day → ]
[ °C ]   °F
Weather ElementAverageHighLow
Temperature54.4 °F62.6 °F (1:15 pm)50 °F (12:35 am)
Dewpoint49.3 °F51.8 °F (11:55 am)48.2 °F (12:35 am)
Humidity84.3 %100 % (9:15 pm)63 % (1:15 pm)
Barometer30.16 in30.20 in (11:15 pm)30.12 in (5:55 pm)
Wind Speed8.6 mph15 mph (3:15 pm)
Wind Gust20.7 mph (3:15 pm)
Weather ElementAverage
Visibility9.8 mi
Wind DirectionWNW (279.1 °)

Weather ElementTotal
Precipitation---
Heating Degree Days8.7 (Base 65)
Growing Degree Days6.3 (Base 50)
Averaged from 68 records on May 9, 2013
WEATHER CONDITIONS BREAKOUT
WIND DIRECTION BREAKOUT
WEATHER BY HOUR - MAY 9, 2013
[ °C ]   °F
Local TimeTemperatureDewpointHumidityBarometerVisibilityWind DirectionWind SpeedGust SpeedPrecipitationEventsConditions
12:35 AM50.0 °F48.2 °F94 %30.16 in10.0 miCalmOvercast
12:55 AM50.0 °F48.2 °F94 %30.16 in10.0 miWest (260°)3.5 mphOvercast
1:15 AM50.0 °F48.2 °F94 %30.16 in10.0 miWNW (300°)3.5 mphOvercast
1:35 AM50.0 °F48.2 °F94 %30.16 in10.0 miWest (270°)5.8 mphOvercast
1:55 AM50.0 °F48.2 °F94 %30.15 in10.0 miWest (260°)4.6 mphOvercast
2:15 AM50.0 °F48.2 °F94 %30.15 in10.0 miWest (280°)3.5 mphOvercast
2:35 AM50.0 °F48.2 °F94 %30.15 in10.0 miWNW (300°)9.2 mphOvercast
2:55 AM50.0 °F48.2 °F94 %30.15 in10.0 miWNW (290°)5.8 mphOvercast
3:15 AM50.0 °F48.2 °F94 %30.15 in10.0 miWNW (290°)5.8 mphOvercast
3:35 AM50.0 °F48.2 °F94 %30.14 in10.0 miWNW (300°)4.6 mphOvercast
3:55 AM50.0 °F48.2 °F94 %30.14 in10.0 miWNW (290°)5.8 mphOvercast
4:15 AM50.0 °F48.2 °F94 %30.13 in10.0 miWNW (300°)6.9 mphOvercast
4:55 AM50.0 °F48.2 °F94 %30.13 in10.0 miWNW (290°)5.8 mphOvercast
5:15 AM50.0 °F48.2 °F94 %30.13 in10.0 miWest (270°)5.8 mphOvercast
5:35 AM50.0 °F48.2 °F94 %30.13 in10.0 miNW (320°)3.5 mphOvercast
5:55 AM50.0 °F48.2 °F94 %30.13 in10.0 miNNW (330°)4.6 mphOvercast
6:15 AM50.0 °F48.2 °F94 %30.13 in9.0 miNNW (340°)3.5 mphOvercast
6:35 AM50.0 °F48.2 °F94 %30.13 in9.0 miNNW (330°)3.5 mphOvercast
6:55 AM50.0 °F48.2 °F94 %30.15 in8.0 miCalmOvercast
7:15 AM50.0 °F48.2 °F94 %30.15 in9.0 miWest (260°)6.9 mphOvercast
7:35 AM50.0 °F48.2 °F94 %30.15 in10.0 miWest (260°)5.8 mphOvercast
7:55 AM50.0 °F48.2 °F94 %30.16 in10.0 miNW (310°)3.5 mphOvercast
8:15 AM50.0 °F48.2 °F94 %30.16 in10.0 miNNW (340°)4.6 mphOvercast
8:35 AM51.8 °F50.0 °F94 %30.17 in10.0 miNorth (360°)3.5 mphOvercast
8:55 AM53.6 °F50.0 °F88 %30.18 in10.0 miNNW (330°)3.5 mphOvercast
9:15 AM55.4 °F50.0 °F82 %30.17 in10.0 miNNW (330°)4.6 mphOvercast
9:35 AM55.4 °F50.0 °F82 %30.17 in10.0 miWest (270°)4.6 mphOvercast
9:55 AM57.2 °F50.0 °F77 %30.17 in10.0 miWest (280°)6.9 mphOvercast
10:15 AM59.0 °F50.0 °F72 %30.17 in10.0 miWest (280°)5.8 mphMostly Cloudy
10:35 AM59.0 °F50.0 °F72 %30.17 in10.0 miWest (280°)8.1 mphScattered Clouds
10:55 AM59.0 °F50.0 °F72 %30.17 in10.0 miWest (280°)11.5 mph16.1 mphPartly Cloudy
11:15 AM59.0 °F50.0 °F72 %30.18 in10.0 miWest (270°)9.2 mphPartly Cloudy
11:35 AM60.8 °F50.0 °F68 %30.18 in10.0 miWest (260°)6.9 mphClear
11:55 AM60.8 °F51.8 °F72 %30.18 in10.0 miWNW (290°)12.7 mph19.6 mphClear
12:15 PM60.8 °F50.0 °F68 %30.18 in10.0 miWest (260°)11.5 mphPartly Cloudy
12:35 PM60.8 °F51.8 °F72 %30.17 in10.0 miWest (280°)9.2 mphPartly Cloudy
12:55 PM60.8 °F50.0 °F68 %30.18 in10.0 miWest (280°)12.7 mph18.4 mphPartly Cloudy
1:15 PM62.6 °F50.0 °F63 %30.18 in10.0 miWNW (290°)10.4 mph17.3 mphClear
1:35 PM62.6 °F50.0 °F63 %30.18 in10.0 miWNW (290°)11.5 mph17.3 mphClear
1:55 PM62.6 °F51.8 °F68 %30.18 in10.0 miWNW (290°)11.5 mph17.3 mphPartly Cloudy
2:15 PM60.8 °F50.0 °F68 %30.18 in10.0 miWNW (300°)9.2 mphPartly Cloudy
2:35 PM60.8 °F50.0 °F68 %30.18 in10.0 miWest (280°)12.7 mph17.3 mphPartly Cloudy
2:55 PM60.8 °F50.0 °F68 %30.17 in10.0 miWNW (300°)10.4 mph17.3 mphPartly Cloudy
3:15 PM60.8 °F50.0 °F68 %30.17 in10.0 miWest (270°)15.0 mph20.7 mphPartly Cloudy
3:35 PM60.8 °F50.0 °F68 %30.16 in10.0 miWest (260°)15.0 mph18.4 mphPartly Cloudy
3:55 PM59.0 °F50.0 °F72 %30.15 in10.0 miWest (280°)15.0 mph19.6 mphPartly Cloudy
4:15 PM60.8 °F50.0 °F68 %30.14 in10.0 miWest (280°)12.7 mph18.4 mphPartly Cloudy
4:35 PM59.0 °F50.0 °F72 %30.14 in10.0 miWest (260°)12.7 mph19.6 mphScattered Clouds
4:55 PM59.0 °F50.0 °F72 %30.13 in10.0 miWest (260°)13.8 mph18.4 mphPartly Cloudy
5:15 PM57.2 °F50.0 °F77 %30.13 in10.0 miWNW (290°)13.8 mph17.3 mphClear
5:35 PM57.2 °F50.0 °F77 %30.13 in10.0 miWest (260°)11.5 mphPartly Cloudy
5:55 PM57.2 °F50.0 °F77 %30.12 in10.0 miWest (280°)12.7 mph17.3 mphScattered Clouds
6:15 PM57.2 °F50.0 °F77 %30.12 in10.0 miWest (280°)12.7 mphPartly Cloudy
6:35 PM57.2 °F50.0 °F77 %30.12 in10.0 miWNW (290°)11.5 mph17.3 mphPartly Cloudy
6:55 PM55.4 °F50.0 °F82 %30.13 in10.0 miWest (260°)11.5 mph16.1 mphScattered Clouds
7:15 PM53.6 °F50.0 °F88 %30.14 in10.0 miWest (280°)13.8 mph18.4 mphOvercast
7:35 PM53.6 °F48.2 °F82 %30.15 in10.0 miWest (280°)13.8 mph18.4 mphOvercast
7:55 PM51.8 °F50.0 °F94 %30.15 in10.0 miWest (280°)8.1 mph17.3 mphOvercast
8:15 PM51.8 °F50.0 °F94 %30.15 in10.0 miWNW (300°)11.5 mphOvercast
8:55 PM51.8 °F50.0 °F94 %30.17 in10.0 miWest (280°)13.8 mph19.6 mphOvercast
9:15 PM50.0 °F50.0 °F100 %30.17 in5.0 miWNW (290°)11.5 mph17.3 mphOvercast
9:35 PM50.0 °F50.0 °F100 %30.18 in7.0 miWest (280°)15.0 mphOvercast
9:55 PM50.0 °F50.0 °F100 %30.18 in10.0 miWNW (290°)13.8 mph19.6 mphOvercast
10:15 PM50.0 °F48.2 °F94 %30.19 in10.0 miWest (260°)12.7 mphOvercast
10:35 PM50.0 °F48.2 °F94 %30.19 in10.0 miNW (310°)8.1 mphOvercast
10:55 PM50.0 °F50.0 °F100 %30.19 in10.0 miWNW (290°)9.2 mphOvercast
11:15 PM50.0 °F48.2 °F94 %30.20 in8.0 miWNW (290°)9.2 mphOvercast
11:55 PM50.0 °F48.2 °F94 %30.20 in10.0 miWNW (290°)5.8 mphOvercast
Hourly data recorded from KO69, located miles away from Petaluma, California







STORIES FROM OUR PARTNERS